FENGYUN 1C DEB, 33745

Orbit data source: Space-Track

FENGYUN 1C DEB, 33745 is space debris in SSO originally from a launch on Mon, 10 May 1999 UTC launched from the Taiyaun Space Center, China (TSC). Fengyun 1C debris stems from the Chinese weather satellite Fengyun-1C, which was intentionally destroyed by a Chinese anti-satellite missile in 2007. This event dramatically increased the amount of space debris, with thousands of trackable fragments posing hazards to satellites and human spaceflight. The Fengyun 1C debris cloud has become a focal point in discussions about space sustainability and the need for international regulations to prevent the creation of new debris.

Loading next visibility...
Identifier
33745, 1999-025DJJ
Orbit
SSO
Country
Flag of CNCN / PRC
Related business
Manufacturer
Unknown
Mission
Spacecraft
Bus & Motor
Unknown
Mass
Unknown
Launch date (UTC)
Icon of a cake. It is the launch day of the satellite!1999-05-10 (27 years ago)
Launch vehicle
Unknown
Launch site
Taiyaun Space Center, China (TSC)
Object type
Payload
Rocket body
Debris
Shape & HBR
Unknown shape, 0.1 m
Radar Cross Section
Small (<0.1 m²)

Expand to show TLE details & history
Last TLE update: 1 week ago

TLE from 1 week ago
0 FENGYUN 1C DEB
1 33745U 99025DJJ 26122.56070459  .00002148  00000-0  95684-3 0  9996
2 33745  99.0981 169.4710 0053397 222.6753 137.0271 14.23186076680049
Epoch: 2026-05-02T13:27Z
TLE epoch observation values (Epoch: 2026-05-02T13:27:24.876Z)
Latitude
0.00001°
Longitude
107.1405°
Altitude
845.706 km
Speed
7.415 km/s
True Right ascension
11h 17m 53s
True Declination
0° 00' 00"
Sunlit
Object was in full shadow at epoch
Visualization orbit readout
Latitude
Unknown
Longitude
Unknown
Altitude
Unknown
Speed
Unknown
Apparent Right ascension
Unknown
Apparent Declination
Unknown
Sunlit
N/A
Visualization observer readout
Local Sidereal Time
23:42:23
Azimuth
Unknown
Elevation
Unknown
Doppler factor
Unknown
Orbital elements
Apogee altitude
850.163 km
Perigee altitude
773.379 km
Semi-major axis
7,189.908 km
Eccentricity
0.00534
Inclination
99.0981°
RAAN
169.471°
Arg. of periapsis
222.6753°
True anomaly
137.44216°
Mean anomaly
137.0271°
Eccentric anomaly
137.23483°
Mean motion
3.56007 °/min
Orbital period
101.12 mins
BSTAR
0.00095684
Loading maneuver chart data...
Computing Atmospheric mass density...

Documentation

Showing up to 5 results
|